Dewpoint
37 38 38 38 39 38 38 38 38 37 37 37 37 37 37 38 39 40 42 38 37 31 33 27 26 27 23 24 25 20 18 16 15 12 11 7 10 12 13 15 16 15 15 15 18 16 13 22 25 21 24 22 21 21
38 37 38 37 37 37 36 37 38 37 37 36 37 36 36 36 35 36 37 38 39 33 32 33 32 32 28 30 29 23 21 15 17 13 15 15 14 16 14 10 17 15 15 13 16 14 18 22 25 26 24 24 23 21
40 39 39 39 40 40 38 36 35 35 35 37 38 37 38 37 37 37 37 36 34 31 31 31 31 29 28 28 30 28 24 22 20 24 18 16 16 18 14 13 13 17 18 16 15 14 17 19 21 23 23 22 24 22
37 37 37 37 38 38 38 39 40 41 41 40 39 38 38 38 38 38 37 36 35 32 26 25 30 29 28 30 31 30 29 27 27 28 26 23 21 19 15 15 12 14 18 16 16 16 17 18 18 17 21 22 21 20
37 37 37 37 38 38 38 38 38 38 38 40 42 41 40 40 38 39 37 36 36 31 26 27 26 24 27 29 30 30 28 28 25 24 24 21 21 22 18 16 17 16 16 15 16 19 18 18 19 16 14 15 15 15
36 36 36 38 39 39 39 39 39 40 41 40 39 41 41 40 39 33 27 35 38 38 30 24 21 20 24 26 26 27 29 28 28 25 23 24 21 24 20 16 17 18 19 20 19 20 21 19 15 13 12 14 16 18
36 38 40 41 41 41 41 42 41 41 40 41 41 40 41 39 37 31 27 33 38 37 29 24 20 20 23 25 25 26 28 26 26 24 23 22 21 24 21 16 17 16 15 16 18 18 19 16 18 13 13 12 12 12
38 39 38 39 39 38 38 38 38 39 41 41 42 41 39 36 34 32 34 37 39 33 30 23 17 17 23 19 19 25 23 25 24 23 22 20 20 20 17 15 13 12 13 13 12 11 14 13 14 14 11 11 12 12
38 37 38 37 37 37 38 38 39 39 38 40 40 37 32 31 29 30 36 37 36 32 24 21 18 15 20 18 20 21 22 17 23 20 19 20 16 15 12 10 8 6 6 8 9 10 11 14 12 11 9 10 11 12
36 36 36 37 38 38 38 40 41 41 39 40 35 32 25 29 36 32 27 28 30 29 28 21 16 16 16 16 16 17 19 17 13 15 21 16 14 9 8 7 5 3 3 3 11 14 12 12 11 10 10 7 8 8
34 35 37 38 38 38 39 41 43 42 40 35 31 26 28 34 27 22 21 21 21 21 22 18 17 16 19 15 16 19 15 16 12 13 14 12 10 8 7 6 4 3 3 3 2 4 4 4 8 9 10 9 9 8
33 37 38 39 39 39 40 42 42 40 36 34 31 30 27 22 20 19 16 18 19 17 19 18 17 19 19 21 18 18 14 15 10 15 12 9 7 7 5 5 4 4 3 4 3 5 5 5 4 6 7 8 9 9
34 35 39 40 39 39 41 41 42 37 35 32 27 21 18 17 16 15 13 13 15 18 18 17 17 19 19 20 17 16 12 11 15 10 9 6 7 6 6 5 5 5 4 3 3 2 3 3 4 4 6 7 8 10
34 35 37 37 38 41 42 41 38 37 33 28 23 18 15 14 15 14 15 15 16 18 18 18 17 17 18 17 16 12 12 13 8 6 6 6 6 6 7 6 5 5 5 5 5 4 4 4 4 5 5 5 7 8
32 34 36 36 38 42 41 39 38 35 31 25 22 17 15 16 19 17 16 18 19 19 19 17 16 17 15 14 13 12 9 7 7 6 7 7 8 8 7 7 7 7 6 6 7 7 7 6 6 6 6 6 6 6
31 33 35 35 38 39 39 37 34 32 28 24 21 16 19 17 19 19 18 19 18 19 18 15 13 13 13 13 11 10 9 7 6 7 7 9 7 6 7 7 7 7 7 7 7 7 7 7 6 7 7 7 7 7
31 34 33 33 36 37 37 33 32 30 27 24 22 22 20 21 22 18 17 18 17 19 16 13 13 11 12 10 9 6 5 3 4 5 6 6 5 6 7 7 7 7 6 6 6 6 6 8 8 6 5 7 8 8
28 31 32 36 36 36 33 30 29 26 23 21 22 21 18 16 17 16 18 17 20 18 15 16 14 12 9 8 4 2 2 4 4 3 3 4 5 6 7 6 7 7 6 5 5 5 4 4 4 5 5 6 7 7
29 30 33 34 35 32 28 25 23 23 19 19 19 17 14 11 10 9 10 12 13 13 14 9 6 2 -1 -1 -2 0 -0 1 1 2 3 4 4 4 5 6 6 5 5 4 4 3 3 2 2 3 5 4 4 6
30 29 27 32 31 28 24 21 20 19 16 15 16 13 10 9 9 7 5 5 6 4 0 -3 -4 -3 -3 -2 -1 -1 0 2 2 2 1 2 3 3 3 3 3 4 4 4 5 4 2 2 1 -0 4 3 0 2
23 21 24 26 23 21 18 16 16 15 15 12 14 11 8 8 4 2 1 3 -1 -4 -4 -2 -3 -2 -0 -1 -0 0 1 1 1 3 1 0 2 2 1 2 3 3 2 1 0 -0 1 -0 0 -2 -1 -1 0 -1
18 19 15 19 20 19 15 15 15 16 13 11 9 8 4 2 0 -1 2 -3 -4 -2 -1 -1 -1 -1 -2 -3 -2 -1 -0 1 1 1 2 2 -1 -1 -1 -1 -1 -1 -1 -2 -2 -2 -2 -0 1 -3 -4 -1 -4 -4
16 12 13 11 16 13 11 13 12 11 9 7 7 4 1 0 1 4 -4 -2 -1 2 2 0 -0 0 -1 -0 -0 -1 -1 -1 -2 -2 -2 -2 -1 -2 -3 -4 -4 -5 -4 -4 -3 -4 -5 -1 -2 -2 -6 -6 -6 -6
9 6 7 6 6 6 10 8 11 9 8 5 3 1 0 0 2 -3 -7 -4 -0 3 2 1 2 1 1 1 -2 -3 -3 -2 -3 -2 -2 -4 -4 -4 -3 -4 -4 -4 -4 -5 -5 -5 -5 -5 -3 -6 -6 -7 -7 -5
7 -0 0 -0 3 3 3 2 3 4 2 3 1 0 0 2 -5 -8 -8 -5 -2 -2 -0 2 1 1 -1 -1 -0 -1 -2 -5 -6 -7 -6 -6 -8 -8 -6 -6 -6 -5 -6 -7 -6 -6 -6 -6 -6 -7 -7 -7 -4 -4
-1 -2 -2 -3 -2 -2 -2 -2 -3 -3 -2 -1 -3 -1 -0 -5 -9 -11 -8 -4 -3 -3 -3 -3 -2 -0 -2 -3 -5 -5 -5 -5 -7 -8 -7 -6 -8 -9 -9 -9 -10 -9 -7 -8 -7 -7 -7 -7 -7 -7 -8 -7 -3 -5
-3 -4 -2 -2 -4 -3 -4 -5 -6 -7 -8 -8 -8 -5 -4 -9 -12 -8 -3 -3 -3 -2 -1 -2 -4 -5 -5 -6 -8 -8 -8 -8 -8 -10 -9 -9 -9 -9 -8 -9 -10 -9 -7 -4 -5 -6 -7 -7 -7 -7 -7 -7 -7 -8
-6 -7 -7 -10 -12 -13 -11 -13 -13 -13 -13 -12 -10 -11 -10 -10 -9 -6 -4 -3 -3 -3 -3 -4 -8 -9 -9 -9 -10 -11 -11 -13 -14 -15 -15 -14 -14 -15 -14 -13 -12 -3 -1 -5 -5 -3 -4 -4 -5 -5 -5 -7 -6 -6
-8 -11 -11 -11 -14 -14 -14 -13 -13 -13 -11 -13 -12 -11 -11 -9 -7 -6 -4 -5 -9 -8 -8 -9 -9 -11 -10 -11 -12 -13 -13 -13 -12 -13 -13 -13 -13 -13 -15 -14 -12 -11 -11 -11 -3 1 1 1 0 1 -1 -3 -7 -11
-11 -15 -13 -14 -11 -10 -11 -13 -12 -13 -12 -12 -11 -8 -7 -6 -5 -9 -8 -8 -6 -5 -6 -9 -11 -12 -10 -10 -10 -10 -12 -15 -14 -11 -12 -12 -12 -12 -11 -10 -10 -9 -9 -10 -9 -9 -3 -5 -5 -7 -9 -11 -11 -12
-17 -14 -13 -14 -11 -12 -14 -18 -19 -14 -15 -12 -15 -10 -8 -9 -9 -9 -9 -9 -8 -9 -7 -6 -7 -12 -11 -10 -10 -12 -11 -13 -16 -14 -14 -13 -12 -11 -9 -9 -8 -7 -6 -7 -8 -8 -10 -10 -10 -10 -11 -12 -13 -11
-15 -14 -14 -14 -12 -16 -20 -15 -16 -14 -14 -11 -10 -12 -9 -9 -8 -8 -8 -9 -8 -7 -4 -5 -6 -7 -9 -10 -12 -14 -6 -7 -8 -10 -10 -9 -8 -6 -5 -4 -3 -3 -4 -5 -6 -8 -9 -10 -11 -12 -13 -14 -15 -15
-20 -21 -19 -15 -15 -16 -19 -17 -16 -14 -15 -13 -12 -12 -11 -8 -7 -7 -6 -7 -7 -7 -6 -6 -7 -9 -10 -11 -12 -12 -7 -10 -10 -0 0 0 0 0 -1 3 1 -1 -4 -6 -7 -8 -10 -12 -13 -14 -15 -16 -16 -16
Wind_Speed
16 16 16 15 16 16 15 16 15 15 15 14 14 15 16 15 15 10 5 15 14 6 9 12 13 14 6 8 10 7 6 4 5 9 8 6 7 7 4 4 8 12 13 9 8 8 15 7 4 11 2 1 3 3
14 15 15 16 16 15 15 16 16 16 15 15 13 14 13 14 15 11 6 1 9 5 7 4 11 12 19 23 12 11 3 5 12 7 7 3 5 4 6 5 3 8 11 7 15 10 4 4 1 2 3 1 5 5
16 17 18 19 19 19 18 17 16 15 15 15 15 16 14 14 12 9 1 3 1 4 10 13 16 6 3 2 3 14 7 6 5 1 5 3 6 6 7 11 8 8 7 5 2 11 21 19 10 9 9 11 6 6
18 18 19 20 20 21 22 22 22 21 20 17 17 16 15 15 14 9 5 8 4 4 8 7 1 2 4 5 1 6 8 5 5 4 5 6 6 6 4 4 9 5 13 12 9 20 17 18 16 10 9 6 5 4
19 20 21 21 22 21 21 21 21 21 20 20 20 18 15 16 15 7 7 9 13 9 5 7 1 2 5 4 11 9 8 9 5 7 7 9 4 3 0 2 17 10 17 15 20 14 14 15 2 4 7 8 4 5
20 21 22 22 22 22 22 21 22 22 21 20 19 19 14 13 6 2 4 1 4 4 6 5 3 7 6 3 6 8 12 5 6 7 4 4 2 7 5 7 6 9 11 12 23 4 6 6 2 5 8 5 2 4
22 23 24 25 24 23 23 23 23 23 22 21 18 18 12 8 3 3 4 1 6 4 4 6 3 4 3 2 3 3 3 2 4 5 4 4 5 6 4 9 2 12 12 11 8 7 10 6 6 1 2 1 2 4
24 24 25 26 25 24 25 24 24 23 22 21 17 10 3 1 1 3 4 11 6 2 3 6 4 3 4 2 2 1 3 3 3 5 3 4 4 3 9 4 13 16 19 6 18 9 6 4 3 3 4 6 7 7
24 24 26 27 28 27 26 26 24 22 21 21 2 9 4 4 1 2 9 8 1 3 3 2 3 4 4 3 2 1 0 3 2 6 5 8 5 9 4 12 15 14 9 18 22 10 5 2 4 6 7 6 9 11
26 27 27 29 29 29 27 27 24 20 17 4 3 2 3 1 4 6 2 1 3 1 3 3 2 2 1 1 1 1 2 2 4 5 6 5 4 6 8 6 8 13 13 12 9 7 9 6 9 8 9 8 6 7
29 29 30 30 30 29 28 25 23 10 6 3 4 3 1 4 2 4 2 1 2 2 1 1 2 3 4 3 4 4 2 2 3 2 5 3 2 6 15 13 12 13 12 8 5 7 8 7 7 7 8 11 9 6
29 30 33 34 30 25 22 22 18 7 4 5 7 5 3 4 3 1 2 3 2 2 0 2 2 1 2 1 2 3 2 2 3 3 2 3 1 9 13 13 12 14 13 10 6 7 8 8 9 8 8 11 10 7
30 32 33 26 30 36 26 22 2 27 16 5 4 2 3 2 2 3 3 3 3 4 5 3 2 1 1 2 1 2 3 2 5 1 2 1 7 9 11 11 12 14 12 11 12 10 9 10 11 12 12 10 9 12
29 32 31 27 37 36 19 5 27 11 5 3 5 4 3 4 6 7 6 3 2 3 5 3 2 2 1 2 1 2 1 2 1 3 1 5 8 9 9 9 10 12 10 10 12 12 13 13 13 13 13 11 11 14
30 32 24 24 37 32 6 26 14 4 3 3 4 4 9 5 1 0 2 3 2 5 5 3 2 1 1 2 1 3 1 3 3 1 2 5 5 7 8 9 9 9 8 8 9 10 11 12 13 14 14 14 14 14
30 23 10 31 29 28 19 8 5 2 2 3 1 2 2 3 4 3 4 3 4 6 4 3 1 0 2 2 2 4 2 3 1 3 5 5 6 7 7 7 8 8 8 8 10 10 10 12 12 10 13 15 15 14
20 3 24 28 24 18 11 4 2 1 3 3 4 3 4 2 3 1 4 4 6 6 3 2 2 2 2 0 1 4 1 3 5 6 7 8 7 7 7 7 7 8 9 10 11 12 11 10 11 14 17 15 13 13
8 19 27 18 16 7 1 2 2 2 4 2 4 3 4 4 3 3 3 3 3 4 6 2 4 2 1 1 1 3 5 5 6 6 7 7 8 8 7 7 8 8 9 10 11 11 12 13 14 13 14 14 11 13
22 19 13 15 10 4 3 1 3 4 3 1 4 4 5 7 8 8 6 8 7 6 4 4 4 3 3 4 3 4 5 5 4 3 6 9 9 9 8 8 9 10 10 9 10 10 10 12 11 11 11 11 10 10
13 9 18 11 7 2 3 1 3 1 1 2 4 4 5 5 4 7 14 12 6 5 9 7 4 2 2 2 3 3 6 7 3 1 3 7 8 8 10 8 8 7 7 8 8 10 9 9 12 12 11 11 11 11
9 9 12 7 4 6 4 4 4 3 2 4 3 4 4 4 6 8 9 9 9 6 5 5 4 4 5 5 6 5 8 9 8 6 2 3 7 8 8 8 8 7 6 7 7 8 10 9 7 9 9 10 10 10
5 13 6 9 4 3 4 8 3 3 3 3 4 4 5 4 5 6 4 11 6 4 4 3 2 3 6 7 7 9 8 8 11 10 12 9 7 7 8 8 8 7 6 7 6 6 7 8 4 9 10 10 11 11
9 6 5 9 4 8 4 8 4 6 3 3 3 4 4 4 3 2 6 5 4 4 4 4 5 6 8 5 6 11 13 11 9 8 9 8 5 6 6 7 6 6 5 6 6 6 7 10 9 9 9 10 10 10
8 7 7 6 9 5 6 6 4 4 4 4 4 3 4 3 2 5 5 4 3 5 4 3 2 2 2 5 7 7 9 8 8 6 5 7 7 6 4 3 4 5 5 3 5 6 7 8 10 9 9 10 10 10
3 9 7 8 7 7 7 6 7 5 4 5 3 4 4 3 4 5 3 2 3 6 7 6 7 7 5 4 4 5 4 9 10 11 5 3 7 7 3 2 1 1 4 8 9 9 10 10 10 11 11 11 13 6
8 7 7 8 7 6 6 4 6 6 5 3 4 4 3 4 4 4 2 2 2 3 5 6 6 4 5 5 6 7 9 9 9 7 5 4 7 6 5 5 5 4 2 5 9 11 13 12 13 15 15 16 16 15
5 5 5 5 3 3 3 4 4 5 4 4 5 6 3 4 3 1 2 3 2 2 2 3 5 4 4 4 4 6 10 8 5 10 12 10 8 6 7 6 5 6 11 12 8 11 12 14 14 16 17 16 14 11
3 4 4 7 6 7 2 4 4 4 4 6 3 4 2 2 3 2 2 1 2 4 4 3 2 4 3 3 5 8 11 12 14 7 4 4 3 6 7 9 12 14 13 10 13 13 13 13 16 19 18 14 12 8
4 4 1 5 4 6 6 3 3 1 3 2 2 2 1 1 1 1 1 2 4 6 11 11 7 10 5 4 6 6 9 8 7 7 7 10 9 6 3 9 16 15 13 14 19 18 18 17 15 16 7 5 9 13
3 3 4 3 4 5 2 1 1 2 1 1 1 0 1 1 1 2 2 1 2 3 4 5 6 5 6 8 11 15 10 3 3 2 6 11 11 14 18 19 19 16 13 13 16 17 17 15 12 10 14 16 16 16
1 1 4 3 3 1 1 3 3 2 2 1 1 2 2 1 3 2 4 3 2 1 5 8 13 5 6 9 11 13 15 4 5 9 11 15 17 19 20 19 16 14 13 12 12 12 13 13 14 17 19 20 21 21
3 3 3 3 3 1 3 1 1 1 3 1 2 2 1 1 2 3 3 6 6 7 6 7 12 11 8 10 10 10 14 14 14 14 17 17 18 21 20 18 14 12 11 12 11 11 13 15 16 16 17 19 21 21
2 2 3 3 2 2 2 2 4 1 3 1 2 2 1 0 2 2 1 7 7 4 7 10 9 10 13 13 13 14 13 13 15 19 21 22 24 22 18 11 6 8 5 9 11 13 15 16 17 18 19 20 21 22
Wind_Direction
334 331 329 329 326 327 325 324 324 326 325 328 330 329 334 328 332 358 298 190 216 235 260 214 211 218 206 190 199 146 115 212 155 196 201 216 213 214 215 179 178 185 183 193 196 225 261 195 135 207 142 60 350 11
329 329 328 325 326 324 323 324 318 314 312 312 310 315 318 316 327 330 291 229 223 265 271 256 259 285 217 213 192 177 228 181 180 169 202 175 227 208 206 235 201 213 206 199 194 214 266 235 147 150 142 285 304 301
319 317 317 317 321 319 314 311 313 309 307 305 306 308 308 310 308 318 310 131 140 251 269 240 245 240 226 319 253 189 213 199 211 257 145 179 227 164 207 231 199 228 190 241 234 254 247 248 242 256 244 250 259 258
324 325 323 323 322 319 317 316 317 312 307 307 302 300 305 306 309 297 235 188 179 284 264 259 20 216 332 51 176 274 189 109 103 121 204 192 204 198 247 263 233 215 166 209 255 271 278 274 257 236 203 228 247 269
323 325 325 322 315 312 309 309 305 300 303 305 302 299 301 303 307 312 249 209 203 215 276 294 117 12 338 264 175 138 152 160 162 173 196 208 191 182 261 288 257 200 231 226 249 253 238 261 240 173 170 193 192 272
323 323 317 313 311 308 308 308 304 303 305 301 302 301 287 301 327 16 332 321 213 202 264 274 19 2 351 108 136 150 172 190 169 166 190 221 261 174 229 247 273 249 240 243 261 333 258 266 249 192 209 216 259 266
322 319 318 314 308 306 305 300 296 298 300 297 288 297 282 282 182 194 237 282 167 146 267 282 296 350 328 15 47 83 98 152 135 155 205 188 200 199 240 248 53 351 341 330 327 323 285 248 270 341 280 337 296 279
319 319 325 323 321 316 314 309 307 311 307 295 289 292 69 31 23 276 338 343 181 183 273 276 295 323 1 356 105 27 130 132 162 166 140 188 157 210 252 269 351 358 342 27 358 332 272 299 310 337 334 328 306 311
322 321 321 319 316 313 310 305 296 291 295 302 209 114 72 53 54 302 307 345 92 199 238 239 277 313 355 13 30 50 100 147 142 202 193 162 184 222 315 330 340 342 328 304 316 314 333 329 329 343 336 325 304 306
329 322 319 316 314 312 310 308 300 289 282 239 113 138 246 177 340 340 346 267 223 219 220 238 134 232 121 77 5 72 324 206 185 224 141 214 250 111 23 347 324 331 324 323 320 315 345 345 3 3 355 334 296 294
327 323 319 317 314 313 310 307 304 291 148 158 174 182 162 326 37 21 274 251 307 248 353 106 170 191 210 167 193 211 206 206 229 204 195 221 248 352 349 346 356 355 339 325 282 298 297 291 320 348 8 7 357 317
327 327 324 318 315 313 308 324 317 165 160 150 124 97 83 53 52 304 269 303 237 274 248 191 190 201 183 233 209 196 206 150 264 137 204 247 328 336 349 351 354 7 0 3 10 24 24 28 14 13 8 16 15 2
332 332 334 358 348 339 314 318 80 125 107 76 69 91 83 10 232 213 231 242 247 202 189 179 209 185 140 218 134 183 199 216 129 185 250 287 334 346 354 358 12 18 21 29 35 40 41 41 41 43 39 27 35 38
337 333 334 342 341 328 310 245 138 121 98 156 165 166 179 209 234 204 205 203 204 125 161 152 149 198 155 147 151 171 73 138 210 242 240 339 342 346 4 17 24 16 21 37 46 46 47 45 41 36 37 33 51 55
336 330 329 341 347 347 114 146 129 80 124 192 128 196 218 223 229 248 159 135 139 144 132 120 91 191 123 134 75 118 155 240 226 244 24 359 1 4 13 20 24 23 22 31 34 46 48 45 43 39 31 35 44 51
335 328 348 344 347 8 28 54 41 72 91 147 169 196 201 190 218 205 185 193 179 142 97 76 117 162 222 145 160 217 196 236 109 41 16 25 34 22 17 22 25 27 34 40 38 38 43 43 38 31 31 30 32 41
332 310 334 328 334 343 1 1 343 244 210 214 230 205 185 155 238 177 174 185 161 149 201 138 200 234 122 341 206 21 37 27 8 33 33 27 27 15 16 30 34 42 44 42 43 38 35 35 43 43 38 21 25 33
310 315 313 322 335 313 316 15 262 274 234 241 218 175 100 63 101 66 37 37 161 176 151 191 126 160 191 214 93 36 26 16 45 43 28 20 21 25 30 34 38 45 51 49 48 43 36 35 40 30 27 13 17 21
318 314 341 341 336 295 287 6 11 256 220 51 97 72 77 95 63 38 27 29 58 45 82 54 86 95 87 51 38 17 3 1 347 34 39 33 30 28 30 38 44 47 48 46 52 50 44 40 33 23 21 19 22 13
329 335 351 343 351 263 269 3 358 33 110 30 42 55 57 54 78 47 34 27 42 46 49 43 57 54 48 14 358 331 330 319 262 304 41 32 27 39 37 35 32 29 35 34 38 54 38 34 26 17 20 24 21 8
338 344 346 14 31 53 65 4 40 39 27 68 41 60 65 51 38 31 25 5 59 39 56 46 59 60 61 49 30 23 22 26 32 27 44 52 30 38 29 23 27 37 41 33 27 20 33 30 20 13 13 11 4 356
324 347 5 11 42 56 72 14 20 11 54 61 51 48 49 44 37 22 7 46 56 33 31 41 56 68 68 50 33 33 23 38 39 37 39 37 23 13 12 13 14 16 34 27 14 8 6 355 7 25 11 357 357 353
358 20 33 17 42 33 1 358 44 14 41 38 41 50 41 50 44 40 70 61 78 46 62 72 77 83 90 69 58 42 31 28 28 23 18 13 17 17 13 15 16 21 29 23 19 18 5 358 353 5 355 353 350 350
35 45 28 34 22 10 340 25 22 23 40 33 44 52 40 47 61 60 73 60 30 35 85 120 112 97 75 46 37 28 19 10 8 4 9 7 6 355 1 19 42 53 38 358 3 359 356 354 357 353 351 347 342 342
65 9 20 9 6 13 27 13 6 23 42 25 58 53 35 39 65 59 70 68 39 35 27 44 58 56 51 29 25 23 36 18 353 335 323 31 357 341 342 350 14 54 23 12 0 345 340 337 341 341 339 339 327 340
70 12 32 5 7 32 359 15 17 8 3 47 41 349 47 67 67 65 66 32 40 28 24 27 16 19 39 32 1 357 339 334 327 311 306 4 334 305 296 321 341 339 283 332 327 324 324 323 323 324 322 324 330 336
64 20 6 33 350 334 49 31 19 44 48 28 352 359 38 65 73 92 120 29 70 32 18 20 18 1 328 340 355 347 335 332 302 288 292 296 289 260 240 259 303 305 316 312 309 303 301 303 303 300 299 301 304 299
87 32 48 356 44 24 72 44 35 29 352 338 306 35 76 91 137 139 85 63 19 342 336 348 36 17 318 300 314 323 333 332 328 319 307 302 293 285 258 261 274 288 294 301 289 281 273 271 274 277 276 271 272 278
57 358 94 38 46 43 42 49 9 321 331 341 43 70 82 3 287 188 144 332 342 51 35 21 5 345 343 295 293 303 313 326 354 1 350 335 334 319 247 292 295 287 283 289 303 305 301 285 281 296 285 255 284 288
29 5 91 67 52 35 3 206 354 312 309 307 287 132 43 354 285 227 257 212 109 36 11 343 331 344 338 333 327 333 339 292 221 255 311 304 295 291 300 295 292 287 286 283 289 295 308 313 310 313 315 312 310 308
5 92 81 73 94 141 219 303 291 268 335 6 16 97 114 310 300 237 209 208 183 337 338 345 349 334 317 327 327 329 329 301 236 257 263 273 277 280 277 276 277 278 278 278 279 281 290 301 297 296 297 295 296 302
35 69 118 118 147 331 19 43 14 83 10 92 39 30 50 93 227 211 211 187 239 276 315 335 329 325 300 288 288 267 270 282 288 291 294 288 283 275 274 276 276 274 270 270 269 274 283 287 288 287 289 291 292 292
76 75 68 98 106 152 16 48 40 63 44 75 43 17 8 261 241 296 251 214 228 275 303 310 305 294 298 300 293 293 289 282 291 304 313 312 314 323 324 319 9 346 325 306 298 289 289 290 291 292 293 292 291 290